Domov               UVHVVR             MKGP            O straneh              
ZDRAVSTVENO VARSTVO RASTLIN
  MREŽA AGROMET. POSTAJ
 ► PROGNOSTIČNA OBVESTILA
AGROMETEOROLOŠKI PODATKI -
ARSO
OBVLADOVANJE TVEGANJ ZARADI
NEUGODNIH VREMENSKIH RAZMER
  ► NARAVNE NESREČE
  ► SUŠA/MOČA
  ► NAMAKANJE
  ► ŽLED (gozdarstvo)
KARTOGRAFSKI PRIKAZI
SPLETNE POVEZAVE
PROJEKTI IN PUBLIKACIJE

AGROMETEOROLOŠKA MREŽA: VREMENSKE POSTAJE IN FENOLOŠKA OPAZOVANJA

Pregled podatkov za lokacijo Sremič, meteorološka postaja 49592

Pregled senzorjev na lokaciji

ID Ime Zadnja
vrednost
Datum
zadnje
spremembe
Tip
senzorja
3945 Relativna vlaga 2 m (% RH) 75,06 % RH 21.10.2017 00:59 Generic 0 - 100 %
3946 Temperatura 2 m ( °C) 11,03 °C 21.10.2017 01:00 Generic -40 - +60 °C
3947 Omočenost lista (U) 0 U 21.10.2017 01:00 A730WET
3948 Padavine 0.2 mm (mm) 0 mm 21.10.2017 00:29 Generic 0.2 mm

Pregled podatkov zadnjih 24 ur

Zap.
št.
Datum in čas Sremič
Omočenost
lista
Padavine
0.2
mm
Relativna
vlaga
2
m
Temperatura
2
m
0 21.10.2017 00:00 0 0 75,06 11,03
1 20.10.2017 23:30 0 0 75,42 11,09
2 20.10.2017 23:00 0 0 74,83 11,23
3 20.10.2017 22:30 0 0 74,33 11,35
4 20.10.2017 22:00 0 0 73,44 11,47
5 20.10.2017 21:30 0 0 72,64 11,65
6 20.10.2017 21:00 0 0 72,08 11,86
7 20.10.2017 20:30 0 0 71,56 12,07
8 20.10.2017 20:00 0 0 70,48 12,36
9 20.10.2017 19:30 0 0 68,11 12,84
10 20.10.2017 19:00 0 0 66,82 13,16
11 20.10.2017 18:30 0 0 65,22 13,49
12 20.10.2017 18:00 0 0 62,34 14,16
13 20.10.2017 17:30 0 0 59,55 14,87
14 20.10.2017 17:00 0 0 53,16 16,26
15 20.10.2017 16:30 0 0 47,89 17,62
16 20.10.2017 16:00 0 0 42,92 18,78
17 20.10.2017 15:30 0 0 40,5 19,93
18 20.10.2017 15:00 0 0 38,84 20,91
19 20.10.2017 14:30 0 0 39 20,58
20 20.10.2017 14:00 0 0 36,93 21,1
21 20.10.2017 13:30 0 0 35,94 20,76
22 20.10.2017 13:00 0 0 36,92 20,58
23 20.10.2017 12:30 0 0 40,15 20,27
24 20.10.2017 12:00 0 0 42,34 20,07
25 20.10.2017 11:30 0 0 44,55 19,79
26 20.10.2017 11:00 0 0 45,44 19,28
27 20.10.2017 10:30 0 0 45,88 17,87
28 20.10.2017 10:00 0 0 48,11 16,46
29 20.10.2017 09:30 0 0 48,11 15,99
30 20.10.2017 09:00 0 0 50,39 14,98
31 20.10.2017 08:30 0 0 51,78 14,09
32 20.10.2017 08:00 0 0 55,73 12,97
33 20.10.2017 07:30 0 0 62,73 11,42
34 20.10.2017 07:00 0 0 58,08 11,83
35 20.10.2017 06:30 0 0 60,92 11,62
36 20.10.2017 06:00 0 0 62,11 11,59
37 20.10.2017 05:30 0 0 61,36 11,78
38 20.10.2017 05:00 0 0 61,82 11,87
39 20.10.2017 04:30 0 0 62,73 11,94
40 20.10.2017 04:00 0 0 62,38 12,06
41 20.10.2017 03:30 0 0 61,45 12,3
42 20.10.2017 03:00 0 0 62,53 12,2
43 20.10.2017 02:30 0 0 66,26 12
44 20.10.2017 02:00 0 0 67,23 11,82
45 20.10.2017 01:30 0 0 67,62 11,94
© 2011 Ministrstvo za kmetijstvo, gozdarstvo in prehrano. Vse pravice pridržane.